Regional Weather Roundup
Issued by NWS Newport/Morehead, NC

Current Version | Previous Version | Text Only | Print | Product List | Glossary Off
Versions: 1 2 3 4 5 6 7 8 9 10 11 12 13 14 15 16 17 18 19 20 21 22 23 24 25 26 27 28 29 30 31 32 33 34 35 36 37 38 39 40 41 42 43 44 45 46 47 48 49 50
733 ASUS42 KMHX 100525 RWRMHX WEATHER ROUNDUP FOR EASTERN NORTH CAROLINA NATIONAL WEATHER SERVICE NEWPORT/MOREHEAD CITY NC 1200 AM EST WED FEB 10 2016 NOTE: "FAIR" INDICATES FEW OR NO CLOUDS BELOW 12,000 FEET WITH NO SIGNIFICANT WEATHER AND/OR OBSTRUCTIONS TO VISIBILITY NCZ015>017-031-032-045>047-102-103-100600- NORTH COAST CITY SKY/WX TMP DP RH WIND PRES REMARKS EDENTON PTCLDY 38 22 51 W12 29.78S ELIZABETH CITY CLOUDY 37 25 61 W12 29.75S KITTY HAWK CLOUDY 39 26 59 W14G21 29.73F MANTEO CLOUDY 38 28 65 W14 29.76S $$ NCZ045>047-081-094-103-104-100600- CENTRAL COAST CITY SKY/WX TMP DP RH WIND PRES REMARKS FRISCO PTCLDY 41 25 53 W15G25 29.78R SWANQUARTER N/A 37 N/A N/A W10 29.77S $$ NCZ095-097-098-100-101-100600- SOUTHERN COAST CITY SKY/WX TMP DP RH WIND PRES REMARKS BEAUFORT CLOUDY 39 26 59 W15 29.82S CEDAR ISLAND N/A 39 N/A N/A SW9 29.85S JACKSONVILLE CLOUDY 38 25 59 W6 29.83S PINEY ISLAND PTCLDY N/A N/A N/A W9G22 29.81R WILMINGTON CLOUDY 39 25 57 SW14 29.86R $$ NCZ011>013-027>030-043-044-078>080-089-090>093-098-100600- COASTAL PLAIN CITY SKY/WX TMP DP RH WIND PRES REMARKS AHOSKIE CLEAR 32 17 55 CALM 29.78S CLINTON MOCLDY 35 14 42 W10G21 29.87R ELIZABETHTOWN CLOUDY 37 14 39 NW12G17 29.87R GOLDSBORO MOCLDY 34 12 40 W17G26 29.82R GREENVILLE MOCLDY 34 18 51 W3 29.83R HAVELOCK CLOUDY 39 27 62 SW8 29.82S KENANSVILLE CLOUDY 35 16 46 W9 29.86R KINSTON MOCLDY 36 14 40 W8 29.83R NEW BERN CLOUDY 38 22 52 W10 29.82S RICHLANDS CLOUDY 37 18 44 W7 29.84R ROCKY MOUNT PTCLDY 32 15 49 W10 29.82R WASHINGTON CLOUDY 36 23 58 W8 29.80S WHITEVILLE CLOUDY 37 26 65 W5 29.87R $$ AMZ130-135-150-152-154-156-158-170-250-252-270-ANZ085-086-088-633-658-670-100600- MARINE OBSERVATIONS STATION/POSITION TIME TEMP WIND PRES WAVE SWELL AIR SEA DIR/SP/G HT/PER HT/PER (UTC) (F) (DEG/KT/KT) (MB) (FT/S) (FT/S) CHESAPEAKE LIGHT 0500 38 270/ 24/ 25 1006.7 64 E VA BEACH 0450 43 50 270/ 23/ 29 1005.0 10/14 7/14 DUCK 0500 39 270/ 15/ 20 1006.7 2 E DUCK 0511 44 N/A 4/14 3/14 OREGON INLET 0500 40 46 260/ 11/ 16 1007.5 13E OREGON INLT 0500 47 N/A 8/13 5/13 HATTERAS CG 0500 42 52 260/ 20/ 26 1007.9 DIAMOND BUOY 0450 45 73 280/ 23/ 29 1008.0 9/14 7/14 CAPE LOOKOUT NOT AVBL BEAUFORT LAB 0500 40 48 270/ 6/ 18 1008.7 30 SE NEW RVR IN 0508 45 60 1009.6 30 SE NEW RVR IN 0425 60 N/A 9/ 8 3/14 27 SE WRIGHTSVLE 0508 44 60 360/ 23/ 29 1009.2 5 SE WRIGHTSVLE 0408 42 51 270/ 21/ 29 1010.9 225 S CAPE HAT 0450 56 68 290/ 25/ 31 N/A 21/11 16/11 41 SE CHARLESTON 0450 45 64 270/ 27/ 33 1013.4 8/ 8 3/ 8 $$

USA.gov is the U.S. government's official web portal to all federal, state and local government web resources and services.